Wind_Speed
29 32 34 39 42 42 41 43 43 41 39 42 47 54 53 49 51 48 41 61 57 47 46 47 40 40 41 34 33 29 28 25 27 26 27 26 27 26 25 23 23 23 22 22
27 29 32 36 40 42 42 42 41 40 39 42 43 51 53 53 53 49 37 42 54 51 48 51 53 43 42 35 35 29 20 23 25 27 26 28 28 27 27 25 26 23 23 24
30 28 30 33 38 41 41 42 43 42 40 44 44 48 50 52 54 53 39 39 38 47 50 50 47 43 45 38 36 28 25 28 27 28 25 28 31 30 29 28 26 24 26 26
34 32 31 34 36 39 43 42 45 45 44 46 47 51 48 49 53 54 52 41 41 44 40 37 51 48 42 37 30 26 29 30 31 31 30 28 28 28 28 26 25 27 28 28
30 33 35 36 36 37 40 42 44 45 47 49 47 54 47 48 50 52 52 45 44 42 39 41 33 44 45 40 32 29 32 34 36 33 31 32 29 28 25 27 28 30 30 30
33 35 37 40 38 36 38 39 41 44 46 51 47 51 53 47 46 47 47 47 47 47 45 43 37 39 38 38 33 34 33 38 41 35 32 34 32 31 30 27 29 32 32 33
36 34 36 40 42 41 38 40 43 45 47 51 48 49 52 45 45 44 44 47 47 49 49 47 43 36 35 36 36 36 34 35 31 30 30 30 29 32 31 30 33 34 36 36
37 34 31 37 39 41 41 40 44 46 46 47 45 49 48 46 47 49 49 49 51 53 49 48 47 45 44 37 36 32 32 29 31 29 28 29 25 28 31 34 36 37 38 38
45 45 38 36 37 38 38 39 41 45 48 49 50 47 49 50 49 51 51 52 55 55 53 48 49 50 49 47 40 33 31 30 32 33 31 31 28 27 32 37 37 37 37 39
52 50 45 41 40 40 39 39 41 42 48 51 50 48 51 50 49 51 50 50 51 56 53 48 46 49 52 50 46 41 38 36 33 36 30 35 31 30 29 35 36 38 39 41
57 57 54 50 47 45 45 45 42 42 45 49 52 52 54 52 51 51 53 50 50 53 56 55 49 48 52 51 48 46 42 38 36 34 33 35 35 24 26 28 32 37 39 41
54 53 55 49 53 52 53 52 50 50 45 47 51 54 57 55 52 49 47 48 50 53 54 56 56 51 51 52 47 45 38 35 37 38 39 40 42 34 36 35 36 39 40 41
47 48 45 47 49 54 54 55 55 54 55 53 50 52 57 58 57 54 48 45 42 41 50 52 57 55 56 56 53 47 43 40 40 43 45 43 44 44 39 41 40 40 39 42
44 44 45 48 49 50 50 53 58 61 62 60 57 54 55 55 57 57 53 49 45 40 38 45 50 62 60 59 55 52 48 46 46 46 48 46 49 49 46 43 44 40 38 38
43 45 47 50 52 53 52 50 53 57 60 64 60 63 58 57 51 56 54 52 49 48 41 40 42 52 62 67 62 60 57 53 51 49 54 52 54 53 52 49 47 41 39 34
36 38 39 41 44 47 45 46 50 55 58 61 65 64 65 62 60 52 47 48 51 46 44 43 43 48 53 58 65 67 67 63 51 55 57 58 59 56 50 51 50 43 40 38
28 23 26 29 30 33 40 32 35 45 56 63 66 65 67 69 65 61 59 56 50 50 48 47 47 47 53 54 56 59 60 59 60 57 59 58 54 54 56 58 52 46 41 43
23 26 29 30 33 34 32 33 32 37 41 52 63 68 72 69 69 67 63 60 61 49 52 52 50 51 54 59 57 57 57 60 56 54 55 54 54 57 58 59 51 39 43 45
24 28 31 33 36 36 31 37 38 40 41 44 51 60 71 76 75 70 70 67 65 61 54 51 60 58 62 56 58 56 54 53 57 57 54 53 55 54 61 59 45 40 46 40
28 27 30 34 40 41 29 34 39 35 34 34 44 44 52 66 79 74 72 73 68 66 66 59 53 60 47 55 48 51 53 55 53 59 55 58 60 63 59 41 45 44 44 45
25 30 35 37 39 32 35 38 40 35 33 37 37 40 48 51 68 80 81 77 76 72 69 68 72 65 52 49 55 55 50 53 56 58 62 64 57 43 46 43 46 52 42 37
31 37 34 37 38 33 32 38 40 39 35 38 41 41 38 42 49 67 79 83 81 79 76 70 66 70 60 63 46 52 43 42 52 47 43 47 44 35 37 43 50 53 52 48
25 28 34 37 37 34 38 41 39 39 36 41 43 38 38 40 34 42 61 78 84 84 84 78 68 66 68 64 63 37 49 52 58 49 41 39 42 43 39 38 45 49 48 47
24 29 36 40 34 37 38 37 38 41 37 41 41 37 37 35 34 32 38 49 69 85 87 87 82 70 64 65 70 66 57 46 56 53 57 51 53 46 40 47 49 50 46 53
23 28 30 36 37 39 35 33 33 36 31 36 27 31 34 30 31 29 30 31 43 61 79 84 86 85 77 72 70 68 67 67 64 48 50 50 55 53 52 51 54 52 58 58
27 33 38 36 31 34 25 27 32 26 24 28 20 20 28 31 33 27 28 31 28 34 55 73 74 75 79 83 78 75 72 71 72 72 66 46 51 53 52 54 50 49 47 56
Wind_Direction
245 243 243 241 244 243 244 246 243 239 240 241 236 238 238 242 249 249 228 231 221 216 220 223 212 207 215 227 223 232 233 235 238 242 243 245 251 255 258 260 264 262 265 268
241 244 249 246 245 244 243 246 246 241 241 244 240 237 237 239 246 252 242 251 231 222 221 225 228 215 216 229 226 231 259 258 246 246 249 251 253 255 259 259 259 261 264 268
246 245 245 247 246 246 246 247 245 244 239 240 240 239 240 238 242 249 244 244 248 237 237 235 230 224 222 227 233 239 263 267 263 254 257 255 253 255 256 258 262 257 260 263
244 243 245 244 243 244 243 247 247 246 241 239 241 240 238 239 240 244 246 240 245 247 244 244 239 241 235 232 241 252 260 266 262 260 264 257 254 254 258 262 260 254 256 261
250 242 243 244 244 245 245 247 248 247 245 240 239 245 234 239 239 242 248 244 242 245 248 246 242 247 252 243 246 248 244 250 259 262 270 260 254 253 259 265 262 258 256 261
255 256 249 244 240 242 245 247 246 246 246 244 240 244 242 237 243 242 242 245 241 240 245 245 240 240 244 244 236 238 248 254 253 260 264 258 257 257 260 262 261 257 256 260
257 255 257 255 249 240 239 240 243 243 243 248 242 240 247 243 242 242 239 238 243 235 235 234 234 228 225 239 236 238 242 245 250 261 263 258 252 254 257 257 258 261 260 262
251 245 252 255 256 247 242 238 242 245 241 247 242 243 246 243 238 238 235 235 237 239 237 236 239 232 236 235 233 233 233 236 249 263 272 270 252 252 252 254 254 257 260 263
255 250 251 249 250 252 247 244 245 247 244 243 240 245 245 242 239 238 236 232 234 235 241 236 236 235 228 223 219 221 237 238 240 254 265 273 270 267 258 254 257 258 260 261
254 255 252 254 251 248 251 251 249 248 248 246 245 242 244 245 245 242 241 237 236 236 235 236 238 236 229 226 220 221 230 237 238 246 257 267 275 270 259 257 257 258 258 261
252 247 248 247 249 254 255 252 252 252 247 249 247 245 243 243 245 246 247 244 239 238 235 231 234 236 228 226 224 225 222 233 234 239 249 256 268 250 260 261 258 259 261 264
263 269 269 262 260 254 253 252 254 256 252 248 249 249 246 246 247 248 249 246 246 241 237 235 234 231 226 231 234 230 232 236 228 227 240 248 256 258 263 270 267 264 266 268
257 258 260 259 254 256 253 254 254 252 252 253 250 250 250 250 251 252 254 255 248 248 243 236 231 232 232 231 240 242 239 241 224 225 226 239 249 256 261 266 273 273 276 272
259 261 259 260 263 257 255 253 253 252 252 250 248 251 250 251 252 255 254 256 258 251 248 235 231 228 232 234 238 236 236 239 225 235 229 232 242 251 258 263 274 275 278 272
260 262 262 261 261 261 257 253 254 252 251 251 249 245 247 249 250 253 253 254 255 256 256 238 226 227 230 234 238 236 236 241 238 235 235 230 236 246 254 263 272 275 281 273
261 260 258 257 260 262 261 262 254 249 250 251 250 246 250 246 246 242 250 252 252 250 245 243 229 221 231 230 234 240 240 237 232 239 236 234 239 243 252 259 267 272 274 272
262 263 269 270 273 275 265 272 272 265 254 246 247 248 247 249 246 246 240 241 247 248 246 238 228 225 222 230 234 234 235 230 232 236 239 240 243 247 250 254 264 266 269 271
250 265 277 278 281 284 285 281 275 272 270 257 247 245 245 245 247 245 243 241 242 244 246 236 237 228 230 224 228 231 227 223 221 225 231 235 239 245 251 255 260 257 262 269
266 277 281 278 281 288 289 280 277 271 266 264 258 252 245 243 242 242 244 241 241 241 240 242 244 233 240 228 230 233 234 232 226 224 228 232 235 237 246 252 256 253 261 265
273 279 279 284 287 289 276 279 286 285 289 275 267 260 251 243 239 239 239 243 240 243 239 236 231 230 234 235 236 236 236 227 225 228 228 235 238 242 245 245 254 253 257 269
283 285 286 288 288 282 287 296 291 290 289 287 282 274 260 254 242 234 235 236 238 238 242 242 240 226 223 229 233 235 236 241 247 242 240 245 244 253 241 239 247 253 261 259
286 284 286 282 280 285 284 284 283 285 278 282 287 275 260 259 249 236 233 232 233 235 238 240 243 245 229 233 251 213 213 235 226 231 250 247 246 238 247 251 253 256 256 256
282 280 282 282 281 285 287 288 285 285 277 283 284 275 251 249 252 241 235 230 229 232 234 236 238 242 243 239 235 228 236 236 248 231 230 247 239 243 251 251 257 256 248 247
292 288 280 278 289 289 287 288 287 283 286 285 289 263 255 246 250 249 239 232 230 228 231 234 234 235 241 240 239 240 244 235 242 247 237 238 240 238 244 264 257 255 245 245
304 297 293 281 290 285 287 281 284 280 300 303 284 256 247 240 237 241 242 244 235 228 230 233 236 236 234 241 244 244 245 242 249 231 221 230 239 250 259 259 249 268 245 249
299 295 295 300 311 304 289 282 276 279 304 300 277 258 248 235 226 238 238 242 230 232 227 231 236 239 238 235 237 243 247 246 246 247 238 245 255 260 260 255 253 262 275 245
Height
5763 5766 5770 5773 5775 5779 5781 5784 5789 5795 5797 5796 5801 5802 5806 5810 5811 5823 5832 5835 5839 5843 5853 5856 5859 5866 5869 5873 5877 5879 5882 5884 5886 5889 5892 5893 5894 5895 5896 5896 5897 5898 5899 5899
5757 5760 5762 5764 5766 5770 5773 5776 5780 5784 5786 5786 5790 5793 5797 5802 5805 5811 5824 5826 5835 5839 5843 5848 5853 5860 5862 5866 5869 5874 5875 5876 5879 5882 5885 5886 5888 5889 5890 5890 5890 5893 5893 5893
5751 5753 5754 5756 5759 5761 5764 5767 5770 5773 5775 5776 5779 5783 5788 5796 5799 5802 5813 5821 5827 5833 5839 5844 5848 5852 5854 5857 5862 5865 5865 5868 5871 5874 5877 5879 5881 5881 5881 5882 5884 5886 5886 5888
5743 5745 5746 5748 5750 5751 5753 5756 5757 5761 5765 5769 5767 5772 5780 5788 5792 5794 5803 5813 5819 5825 5830 5833 5840 5842 5846 5851 5852 5857 5859 5862 5863 5866 5868 5872 5874 5874 5874 5876 5877 5878 5880 5881
5740 5739 5739 5739 5740 5741 5746 5744 5746 5750 5753 5756 5764 5763 5777 5778 5782 5788 5795 5804 5810 5813 5818 5823 5828 5835 5840 5840 5843 5848 5850 5856 5856 5859 5860 5864 5866 5866 5867 5869 5870 5871 5873 5874
5732 5732 5732 5731 5731 5733 5734 5735 5737 5739 5741 5746 5758 5755 5762 5773 5777 5781 5786 5788 5796 5802 5806 5810 5816 5822 5826 5827 5832 5839 5843 5847 5849 5852 5853 5855 5857 5857 5858 5860 5861 5863 5865 5866
5722 5725 5724 5722 5724 5725 5723 5725 5727 5729 5731 5739 5744 5745 5753 5766 5770 5774 5776 5776 5779 5785 5791 5797 5802 5809 5813 5817 5824 5830 5833 5838 5842 5844 5845 5845 5848 5849 5850 5852 5853 5855 5856 5858
5711 5714 5715 5713 5715 5718 5716 5716 5718 5717 5724 5730 5730 5737 5748 5752 5754 5756 5763 5766 5769 5773 5781 5787 5792 5797 5803 5810 5816 5821 5824 5829 5833 5836 5836 5836 5840 5840 5841 5843 5844 5846 5847 5849
5698 5701 5703 5703 5705 5706 5708 5709 5710 5709 5714 5716 5721 5730 5734 5736 5741 5744 5750 5755 5759 5763 5769 5777 5782 5786 5792 5798 5805 5812 5817 5820 5824 5828 5828 5829 5830 5832 5833 5835 5837 5839 5839 5840
5682 5684 5691 5692 5692 5695 5697 5700 5701 5702 5703 5705 5711 5719 5720 5723 5729 5734 5738 5743 5747 5752 5758 5765 5771 5777 5782 5788 5793 5799 5806 5810 5815 5819 5820 5821 5824 5823 5825 5828 5829 5830 5830 5832
5668 5669 5677 5681 5680 5683 5685 5687 5690 5693 5694 5695 5700 5705 5704 5710 5715 5720 5725 5731 5736 5740 5746 5753 5760 5767 5773 5778 5783 5789 5792 5799 5804 5809 5813 5815 5816 5817 5819 5821 5822 5822 5822 5823
5654 5653 5657 5664 5666 5670 5672 5674 5678 5679 5684 5686 5688 5689 5693 5697 5702 5708 5713 5718 5723 5730 5734 5741 5748 5755 5761 5768 5773 5779 5783 5789 5794 5800 5804 5807 5807 5809 5811 5813 5813 5813 5815 5815
5639 5641 5643 5644 5649 5652 5656 5661 5664 5667 5669 5672 5675 5679 5683 5687 5691 5697 5703 5707 5712 5718 5722 5729 5737 5744 5749 5756 5763 5768 5774 5780 5785 5789 5793 5796 5797 5798 5801 5804 5804 5804 5805 5806
5626 5627 5630 5632 5631 5636 5641 5644 5645 5649 5652 5656 5664 5669 5671 5674 5680 5684 5691 5697 5701 5706 5711 5716 5723 5731 5736 5743 5749 5755 5761 5768 5774 5779 5782 5785 5787 5788 5791 5792 5794 5794 5795 5795
5615 5616 5617 5618 5618 5619 5625 5629 5629 5631 5634 5636 5652 5651 5658 5661 5666 5671 5678 5686 5692 5696 5700 5705 5710 5717 5723 5730 5735 5742 5749 5756 5762 5766 5770 5773 5775 5777 5779 5783 5784 5785 5785 5785
5603 5604 5605 5606 5604 5605 5609 5612 5612 5615 5616 5624 5626 5635 5640 5646 5654 5661 5667 5673 5680 5686 5690 5695 5700 5704 5710 5717 5724 5730 5736 5743 5748 5752 5757 5760 5763 5766 5772 5774 5775 5777 5777 5777
5594 5595 5595 5595 5595 5594 5598 5601 5600 5597 5600 5605 5607 5618 5622 5628 5639 5646 5653 5660 5666 5674 5679 5684 5689 5693 5699 5707 5712 5717 5722 5729 5737 5742 5745 5750 5755 5760 5762 5763 5766 5767 5768 5768
5589 5589 5589 5588 5585 5587 5590 5588 5586 5582 5582 5584 5594 5596 5599 5611 5619 5629 5636 5644 5653 5661 5667 5670 5676 5683 5689 5694 5699 5706 5711 5717 5723 5730 5735 5739 5743 5746 5748 5750 5754 5755 5756 5758
5584 5583 5581 5580 5579 5579 5580 5575 5570 5565 5572 5578 5578 5576 5582 5589 5596 5611 5619 5628 5637 5646 5650 5656 5661 5671 5676 5683 5689 5695 5700 5705 5709 5715 5721 5725 5729 5731 5734 5737 5739 5742 5746 5748
5577 5575 5573 5571 5568 5565 5564 5562 5558 5559 5564 5562 5556 5559 5560 5563 5573 5597 5600 5605 5619 5627 5635 5640 5648 5658 5661 5667 5674 5681 5686 5693 5697 5703 5707 5711 5715 5717 5720 5722 5728 5733 5737 5739
5568 5565 5563 5560 5555 5555 5554 5549 5546 5549 5553 5544 5546 5548 5548 5550 5555 5566 5573 5586 5598 5610 5619 5627 5634 5643 5649 5656 5659 5666 5674 5677 5683 5689 5694 5699 5701 5703 5705 5711 5717 5722 5725 5728
5559 5554 5554 5549 5546 5545 5544 5539 5537 5535 5534 5532 5532 5532 5532 5533 5535 5543 5550 5566 5577 5588 5600 5611 5619 5625 5633 5639 5640 5652 5658 5666 5670 5675 5681 5685 5689 5693 5696 5701 5707 5711 5715 5716
5551 5548 5544 5540 5535 5536 5530 5526 5523 5522 5521 5518 5516 5516 5516 5518 5522 5525 5531 5541 5555 5569 5580 5593 5604 5611 5619 5629 5634 5638 5648 5654 5657 5665 5667 5671 5679 5683 5688 5692 5695 5699 5702 5704
5545 5541 5533 5528 5530 5523 5519 5515 5511 5508 5507 5505 5501 5501 5502 5506 5511 5514 5518 5524 5534 5546 5559 5570 5584 5595 5602 5612 5619 5624 5631 5637 5646 5652 5661 5665 5671 5669 5674 5681 5684 5688 5692 5695
5535 5529 5524 5519 5518 5510 5508 5505 5501 5497 5494 5491 5485 5486 5489 5493 5500 5505 5509 5513 5519 5527 5538 5549 5560 5573 5586 5594 5602 5610 5617 5622 5630 5635 5642 5650 5657 5658 5665 5669 5672 5677 5677 5682
5528 5522 5514 5508 5505 5497 5496 5495 5492 5490 5486 5480 5479 5478 5479 5483 5491 5495 5501 5503 5512 5516 5522 5533 5544 5554 5565 5577 5587 5594 5600 5609 5616 5622 5629 5635 5641 5648 5652 5655 5661 5664 5667 5672